GW5636 Weather Reports


Display with metric or nautical units.
time (UTC)temp
F
wind
direction
speed
MPH
gust
MPH
rain 1hr
in
rain 24hr
in
rain mn
in
humidity
%
barometer
mb
20260507135942 50 186 0.0 2.0 0.00 0.00 0.00 81 1021.9
20260507135438 50 220 0.0 1.0 0.00 0.00 0.00 81 1021.6
20260507134936 50 214 0.0 0.0 0.00 0.00 0.00 81 1021.5
20260507134432 50 239 0.0 1.0 0.00 0.00 0.00 81 1021.5
20260507133928 50 200 0.0 1.0 0.00 0.00 0.00 81 1021.4
20260507133424 50 201 0.0 1.0 0.00 0.00 0.00 82 1021.6
20260507132923 50 226 0.0 1.0 0.00 0.00 0.00 82 1021.4
20260507132418 50 229 0.0 0.0 0.00 0.00 0.00 82 1021.5
20260507131915 50 227 0.0 1.0 0.00 0.00 0.00 82 1021.7
20260507131413 50 230 0.0 1.0 0.00 0.00 0.00 82 1021.6
20260507130909 50 230 0.0 1.0 0.00 0.00 0.00 82 1021.5
20260507130406 50 233 0.0 1.0 0.00 0.00 0.00 83 1021.6
20260507125905 50 212 0.0 0.0 0.00 0.00 0.00 83 1021.7
20260507125402 50 212 0.0 1.0 0.00 0.00 0.00 84 1021.7
20260507124900 50 212 0.0 1.0 0.00 0.00 0.00 83 1021.7
20260507124355 50 213 0.0 0.0 0.00 0.00 0.00 83 1021.9
20260507123854 50 213 0.0 0.0 0.00 0.00 0.00 83 1021.7
20260507123351 51 224 0.0 0.0 0.00 0.00 0.00 83 1021.5
20260507122847 51 228 0.0 1.0 0.00 0.00 0.00 83 1021.4
20260507122343 51 272 0.0 0.0 0.00 0.00 0.00 83 1021.8
20260507121839 51 278 0.0 0.0 0.00 0.00 0.00 83 1021.6
20260507121335 51 291 0.0 1.0 0.00 0.00 0.00 83 1021.8
20260507120832 51 187 0.0 1.0 0.00 0.00 0.00 83 1021.7
20260507120328 51 187 0.0 0.0 0.00 0.00 0.00 84 1021.8
20260507115824 51 192 0.0 1.0 0.00 0.00 0.00 83 1021.8
20260507115320 51 192 0.0 0.0 0.00 0.00 0.00 84 1021.8
20260507114816 51 192 0.0 0.0 0.00 0.00 0.00 84 1021.7
20260507114313 51 192 0.0 0.0 0.00 0.00 0.00 84 1021.8
20260507113811 51 192 0.0 0.0 0.00 0.00 0.00 84 1022.1
20260507113308 51 192 0.0 1.0 0.00 0.00 0.00 84 1022.2
20260507112805 51 192 0.0 1.0 0.00 0.00 0.00 84 1022.2
20260507112306 51 192 0.0 0.0 0.00 0.00 0.00 84 1022.3
20260507111800 51 192 0.0 0.0 0.00 0.00 0.00 84 1022.0
20260507111256 51 192 0.0 0.0 0.00 0.00 0.00 84 1022.2
20260507110752 51 192 0.0 1.0 0.00 0.00 0.00 83 1022.1
20260507110249 51 200 0.0 1.0 0.00 0.00 0.00 83 1022.1
20260507105746 51 207 0.0 0.0 0.00 0.00 0.00 83 1022.1
20260507105241 51 218 0.0 0.0 0.00 0.00 0.00 83 1022.3
20260507104739 51 178 0.0 1.0 0.00 0.00 0.00 82 1022.4
20260507104236 51 182 0.0 0.0 0.00 0.00 0.00 83 1022.3
20260507103732 51 181 0.0 1.0 0.00 0.00 0.00 82 1022.2
20260507103228 51 279 0.0 1.0 0.00 0.00 0.00 83 1022.2
20260507102724 51 176 0.0 1.0 0.00 0.00 0.00 83 1022.1
20260507102221 51 263 0.0 0.0 0.00 0.00 0.00 83 1022.3
20260507101717 51 189 0.0 0.0 0.00 0.00 0.00 83 1022.1
20260507101212 51 190 0.0 1.0 0.00 0.00 0.00 83 1022.4
20260507100710 51 199 0.0 1.0 0.00 0.00 0.00 83 1022.2
20260507100208 52 180 1.0 2.0 0.00 0.00 0.00 82 1022.4
20260507095706 52 188 1.0 2.0 0.00 0.00 0.00 83 1022.6
20260507095202 52 188 1.0 3.0 0.00 0.00 0.00 83 1022.6
20260507094659 52 221 2.0 2.0 0.00 0.00 0.00 84 1022.6
20260507094155 52 191 1.0 2.0 0.00 0.00 0.00 84 1022.5
20260507093653 52 193 1.0 2.0 0.00 0.00 0.00 84 1022.6
20260507093152 52 182 1.0 2.0 0.00 0.00 0.00 84 1022.6
20260507092648 52 184 0.0 1.0 0.00 0.00 0.00 84 1022.7
20260507092145 52 214 0.0 1.0 0.00 0.00 0.00 84 1022.7
20260507091641 52 206 0.0 1.0 0.00 0.00 0.00 83 1022.7
20260507091137 52 184 1.0 1.0 0.00 0.00 0.00 83 1022.8
20260507090633 52 218 0.0 0.0 0.00 0.00 0.00 83 1022.7
20260507090131 52 214 0.0 1.0 0.00 0.00 0.00 82 1022.6
20260507085627 52 205 0.0 0.0 0.00 0.00 0.00 83 1022.8
20260507085124 52 250 0.0 0.0 0.00 0.00 0.00 83 1022.7
20260507084621 52 251 0.0 0.0 0.00 0.00 0.00 82 1022.9
20260507084118 52 253 0.0 1.0 0.00 0.00 0.00 83 1022.9
20260507083615 53 193 0.0 2.0 0.00 0.00 0.00 83 1023.0
20260507083112 53 224 0.0 0.0 0.00 0.00 0.00 83 1022.9
20260507082607 53 187 1.0 1.0 0.00 0.00 0.00 83 1023.0
20260507082104 53 205 0.0 0.0 0.00 0.00 0.00 84 1022.9
20260507081600 53 204 0.0 0.0 0.00 0.00 0.00 83 1022.9
20260507081057 53 204 0.0 0.0 0.00 0.00 0.00 84 1022.8
20260507080553 53 204 0.0 0.0 0.00 0.00 0.00 83 1022.6
20260507080050 53 210 1.0 1.0 0.00 0.00 0.00 83 1022.7
20260507075545 53 217 0.0 0.0 0.00 0.00 0.00 84 1022.8
20260507075041 53 217 0.0 0.0 0.00 0.00 0.00 84 1022.7
20260507074538 53 217 0.0 1.0 0.00 0.00 0.00 84 1022.9
20260507074037 53 218 0.0 1.0 0.00 0.00 0.00 83 1022.7
20260507073533 53 168 0.0 1.0 0.00 0.00 0.00 82 1022.8
20260507073029 53 179 0.0 2.0 0.00 0.00 0.00 82 1022.7
20260507072527 53 174 0.0 2.0 0.00 0.00 0.00 82 1022.8
20260507072024 53 187 0.0 1.0 0.00 0.00 0.00 83 1022.7
20260507071521 53 185 1.0 2.0 0.00 0.00 0.00 83 1022.7
20260507071018 53 161 2.0 2.0 0.00 0.00 0.00 82 1022.9
20260507070515 53 152 0.0 2.0 0.00 0.00 0.00 82 1022.8
20260507070013 53 162 2.0 3.0 0.00 0.00 0.00 82 1022.8
20260507065508 53 200 1.0 1.0 0.00 0.00 0.00 82 1022.6
20260507065005 53 205 1.0 1.0 0.00 0.00 0.00 82 1022.6
20260507064504 54 233 0.0 2.0 0.00 0.00 0.00 82 1022.9
20260507064001 54 239 0.0 1.0 0.00 0.00 0.00 82 1022.6
20260507063458 54 185 0.0 1.0 0.00 0.00 0.00 82 1022.8
20260507062955 54 183 1.0 1.0 0.00 0.00 0.00 82 1022.9
20260507062452 54 287 0.0 2.0 0.00 0.00 0.00 81 1023.1
20260507061949 54 199 0.0 1.0 0.00 0.00 0.00 82 1022.8
20260507061447 54 192 1.0 1.0 0.00 0.00 0.00 82 1022.8
20260507060946 54 193 0.0 1.0 0.00 0.00 0.00 81 1022.8
20260507060442 54 192 0.0 1.0 0.00 0.00 0.00 81 1022.8
20260507055938 54 192 1.0 1.0 0.00 0.00 0.00 81 1022.8
20260507055434 54 203 0.0 1.0 0.00 0.00 0.00 82 1022.5
20260507054931 55 214 0.0 0.0 0.00 0.00 0.00 82 1023.0
20260507054427 55 185 0.0 1.0 0.00 0.00 0.00 81 1022.6
20260507053924 55 114 0.0 2.0 0.00 0.00 0.00 80 1022.9
20260507053422 55 195 0.0 2.0 0.00 0.00 0.00 80 1022.7
20260507052920 55 199 0.0 2.0 0.00 0.00 0.00 80 1023.1
20260507052418 55 165 1.0 4.0 0.00 0.00 0.00 80 1022.7
20260507051914 55 154 2.0 3.0 0.00 0.00 0.00 80 1022.7
20260507051412 55 191 2.0 4.0 0.00 0.00 0.00 79 1022.9
20260507050909 56 189 1.0 7.0 0.00 0.00 0.00 79 1022.8
20260507050405 56 169 2.0 3.0 0.00 0.00 0.00 79 1023.0
20260507045902 56 209 1.0 2.0 0.00 0.00 0.00 79 1022.9
20260507045359 56 170 2.0 2.0 0.00 0.00 0.00 79 1022.7
20260507044856 56 159 4.0 4.0 0.00 0.00 0.00 79 1022.6
20260507044352 57 262 0.0 4.0 0.00 0.00 0.00 79 1022.7
20260507043848 57 189 2.0 3.0 0.00 0.00 0.00 79 1022.8
20260507043345 57 161 1.0 3.0 0.00 0.00 0.00 80 1022.6
20260507042841 57 184 2.0 2.0 0.00 0.00 0.00 79 1022.5
20260507042337 57 174 2.0 6.0 0.00 0.00 0.00 79 1022.5
20260507041834 57 201 0.0 1.0 0.00 0.00 0.00 80 1022.5
20260507041331 57 198 0.0 1.0 0.00 0.00 0.00 80 1022.5
20260507040828 58 164 0.0 3.0 0.00 0.00 0.00 79 1022.4
20260507040324 58 199 2.0 4.0 0.00 0.00 0.00 79 1022.5
20260507035820 58 225 1.0 2.0 0.00 0.00 0.00 79 1022.4
20260507035316 58 185 2.0 3.0 0.00 0.00 0.00 79 1022.4
20260507034814 59 224 0.0 4.0 0.00 0.00 0.00 79 1022.2
20260507034310 59 249 0.0 2.0 0.00 0.00 0.00 78 1022.2
20260507033809 59 194 2.0 3.0 0.00 0.00 0.00 78 1022.1
20260507033306 59 212 1.0 2.0 0.00 0.00 0.00 78 1022.0
20260507032803 60 199 1.0 3.0 0.00 0.00 0.00 78 1021.8
20260507032259 60 195 1.0 2.0 0.00 0.00 0.00 78 1022.0
20260507031755 60 205 2.0 2.0 0.00 0.00 0.00 78 1021.9
20260507031252 60 207 0.0 2.0 0.00 0.00 0.00 77 1021.5
20260507030749 60 187 1.0 1.0 0.00 0.00 0.00 77 1021.5
20260507030246 61 182 0.0 1.0 0.00 0.00 0.00 77 1021.4
20260507025743 61 194 0.0 1.0 0.00 0.00 0.00 76 1021.6
20260507025240 61 196 0.0 1.0 0.00 0.00 0.00 75 1021.4
20260507024739 62 194 0.0 1.0 0.00 0.00 0.00 76 1021.4
20260507024236 62 159 1.0 3.0 0.00 0.00 0.00 75 1021.4
20260507023731 62 182 0.0 4.0 0.00 0.00 0.00 75 1021.4
20260507023228 62 179 2.0 3.0 0.00 0.00 0.00 75 1021.4
20260507022726 62 184 1.0 3.0 0.00 0.00 0.00 75 1021.4
20260507022221 62 173 0.0 2.0 0.00 0.00 0.00 74 1021.6
20260507021718 63 157 2.0 2.0 0.00 0.00 0.00 74 1021.1
20260507021213 63 187 2.0 4.0 0.00 0.00 0.00 74 1021.2
20260507020712 64 250 0.0 3.0 0.00 0.00 0.00 73 1021.2
20260507020208 64 229 1.0 3.0 0.00 0.00 0.00 73 1021.2
20260507015706 64 176 1.0 3.0 0.00 0.00 0.00 72 1021.4
20260507015203 65 161 2.0 2.0 0.00 0.00 0.00 71 1021.5
20260507014659 66 192 0.0 2.0 0.00 0.00 0.00 71 1021.4
20260507014155 66 59 0.0 1.0 0.00 0.00 0.00 69 1021.1
20260507013652 66 23 1.0 2.0 0.00 0.00 0.00 70 1021.4
20260507013149 66 292 0.0 1.0 0.00 0.00 0.00 67 1020.9
20260507012647 66 216 0.0 0.0 0.00 0.00 0.00 67 1021.1
20260507012142 66 337 0.0 0.0 0.00 0.00 0.00 69 1021.1
20260507011641 66 336 0.0 0.0 0.00 0.00 0.00 69 1021.1
20260507011137 66 337 0.0 1.0 0.00 0.00 0.00 67 1021.2
20260507010631 67 337 0.0 0.0 0.00 0.00 0.00 67 1021.2
20260507010128 67 336 0.0 1.0 0.00 0.00 0.00 65 1021.4
20260507005625 68 342 1.0 2.0 0.00 0.00 0.00 63 1021.6
20260507005121 68 108 2.0 3.0 0.00 0.00 0.00 62 1021.5
20260507004618 69 12 3.0 3.0 0.00 0.00 0.00 61 1021.7
20260507004116 69 80 1.0 2.0 0.00 0.00 0.00 62 1021.2
20260507003612 69 77 3.0 3.0 0.00 0.00 0.00 60 1021.5
20260507003107 69 276 0.0 3.0 0.00 0.00 0.00 62 1021.5
20260507002604 69 195 2.0 3.0 0.00 0.00 0.00 62 1021.5
20260507002059 69 63 3.0 4.0 0.00 0.00 0.00 62 1021.5
20260507001556 68 10 1.0 2.0 0.00 0.00 0.00 65 1021.5
20260507001054 67 284 1.0 3.0 0.00 0.00 0.00 65 1021.2
20260507000550 69 233 1.0 2.0 0.00 0.00 0.00 61 1021.2
20260507000045 69 98 0.0 1.0 0.00 0.00 0.00 59 1021.6
20260506235543 68 351 1.0 1.0 0.00 0.00 0.00 63 1021.5
20260506235038 67 217 1.0 6.0 0.00 0.00 0.00 65 1021.6
20260506234536 67 202 3.0 4.0 0.00 0.00 0.00 64 1021.7
20260506234033 65 325 0.0 1.0 0.00 0.00 0.00 69 1021.6
20260506233530 65 199 1.0 4.0 0.00 0.00 0.00 67 1021.5
20260506233027 66 18 2.0 2.0 0.00 0.00 0.00 68 1021.6
20260506232523 66 339 0.0 2.0 0.00 0.00 0.00 66 1021.7
20260506232018 67 13 0.0 2.0 0.00 0.00 0.00 65 1021.7
20260506231516 66 15 0.0 1.0 0.00 0.00 0.00 68 1021.6
20260506231014 65 50 1.0 3.0 0.00 0.00 0.00 70 1021.6
20260506230510 65 201 0.0 2.0 0.00 0.00 0.00 70 1021.8
20260506230008 65 44 1.0 3.0 0.00 0.00 0.00 70 1022.0
20260506225504 65 175 2.0 3.0 0.00 0.00 0.00 70 1021.9
20260506225000 66 163 3.0 4.0 0.00 0.00 0.00 69 1021.8
20260506224457 66 273 1.0 3.0 0.00 0.00 0.00 67 1021.5
20260506223954 65 161 3.0 4.0 0.00 0.00 0.00 69 1021.7
20260506223450 66 230 1.0 2.0 0.00 0.00 0.00 68 1022.2
20260506222947 65 235 1.0 2.0 0.00 0.00 0.00 69 1021.9
20260506222444 65 335 1.0 2.0 0.00 0.00 0.00 70 1022.0
20260506221940 65 26 2.0 2.0 0.00 0.00 0.00 69 1022.1
20260506221437 66 342 1.0 2.0 0.00 0.00 0.00 68 1022.0
20260506220935 65 187 0.0 1.0 0.00 0.00 0.00 70 1022.0
20260506220431 66 2 3.0 4.0 0.00 0.00 0.00 70 1021.9
20260506215927 65 259 1.0 3.0 0.00 0.00 0.00 68 1022.0
20260506215424 64 205 3.0 6.0 0.00 0.00 0.00 72 1022.1
20260506214919 64 340 1.0 3.0 0.00 0.00 0.00 72 1022.0
20260506214417 64 227 0.0 1.0 0.00 0.00 0.00 71 1022.2
20260506213914 63 357 0.0 2.0 0.00 0.00 0.00 75 1022.2
20260506213412 63 237 2.0 4.0 0.00 0.00 0.00 74 1022.3
20260506212909 63 196 1.0 1.0 0.00 0.00 0.00 75 1022.2
20260506212405 63 175 1.0 2.0 0.00 0.00 0.00 74 1022.4
20260506211859 62 182 0.0 1.0 0.00 0.00 0.00 74 1022.5
20260506211356 62 11 0.0 1.0 0.00 0.00 0.00 76 1022.4
20260506210853 62 326 2.0 2.0 0.00 0.00 0.00 75 1022.5
20260506210350 64 341 2.0 3.0 0.00 0.00 0.00 72 1022.3
20260506205847 64 355 0.0 2.0 0.00 0.00 0.00 73 1022.3
20260506205343 62 154 2.0 2.0 0.00 0.00 0.00 75 1022.2
20260506204840 62 66 3.0 3.0 0.00 0.00 0.00 76 1022.4
20260506204337 61 113 0.0 2.0 0.00 0.00 0.00 77 1022.2
20260506203835 61 16 2.0 3.0 0.00 0.00 0.00 77 1022.6
20260506203332 60 62 1.0 2.0 0.00 0.00 0.00 79 1022.4
20260506202829 60 27 2.0 2.0 0.00 0.00 0.00 79 1022.6
20260506202326 60 46 1.0 2.0 0.00 0.00 0.00 79 1022.7
20260506201822 60 323 1.0 1.0 0.00 0.00 0.00 79 1022.6
20260506201320 60 192 1.0 1.0 0.00 0.00 0.00 80 1022.5
20260506200816 60 78 2.0 2.0 0.00 0.00 0.00 79 1022.9
20260506200312 60 213 0.0 1.0 0.00 0.00 0.00 81 1022.8
20260506195809 59 123 0.0 2.0 0.00 0.00 0.00 80 1022.8
20260506195306 60 25 2.0 2.0 0.00 0.00 0.00 80 1022.7
20260506194803 60 355 1.0 2.0 0.00 0.00 0.00 80 1022.7
20260506194259 60 46 2.0 3.0 0.00 0.00 0.00 80 1022.5
20260506193757 59 71 1.0 2.0 0.00 0.00 0.00 82 1022.7
20260506193254 59 46 1.0 1.0 0.00 0.00 0.00 81 1022.6
20260506192750 60 82 1.0 2.0 0.00 0.00 0.00 80 1022.7
20260506192247 59 253 0.0 1.0 0.00 0.00 0.00 82 1022.5
20260506191743 59 256 1.0 2.0 0.00 0.00 0.00 81 1022.6
20260506191240 59 0 1.0 2.0 0.00 0.00 0.00 82 1022.7
20260506190737 58 18 2.0 2.0 0.00 0.00 0.00 83 1022.3
20260506190233 58 45 1.0 2.0 0.00 0.00 0.00 82 1022.8
20260506185731 58 256 1.0 2.0 0.00 0.00 0.00 83 1022.8
20260506185227 57 348 1.0 1.0 0.00 0.00 0.00 84 1022.6
20260506184725 57 18 1.0 1.0 0.00 0.00 0.00 84 1022.8
20260506184222 57 73 0.0 2.0 0.00 0.00 0.00 84 1022.7
20260506183719 57 334 1.0 3.0 0.00 0.00 0.00 84 1022.3
20260506183214 57 12 1.0 1.0 0.00 0.00 0.00 84 1022.5
20260506182712 57 5 3.0 3.0 0.00 0.00 0.00 83 1022.6
20260506182209 57 24 2.0 2.0 0.00 0.00 0.00 84 1022.4
20260506181707 57 21 3.0 3.0 0.00 0.00 0.00 84 1022.5
20260506181204 57 36 2.0 2.0 0.00 0.00 0.00 83 1022.6
20260506180701 57 23 1.0 2.0 0.00 0.00 0.00 84 1022.7
20260506180157 58 353 2.0 3.0 0.00 0.00 0.00 83 1022.6
20260506175653 57 268 0.0 2.0 0.00 0.00 0.00 83 1022.4
20260506175150 57 10 1.0 2.0 0.00 0.00 0.00 84 1022.4
20260506174649 56 52 1.0 1.0 0.00 0.00 0.00 84 1022.3
20260506174145 56 21 2.0 3.0 0.00 0.00 0.00 85 1022.4
20260506173643 56 213 1.0 1.0 0.00 0.00 0.00 86 1022.3
20260506173134 55 3 1.0 2.0 0.00 0.00 0.00 86 1022.6
20260506172631 56 8 1.0 3.0 0.00 0.00 0.00 85 1022.7
20260506172127 56 45 2.0 3.0 0.00 0.00 0.00 86 1022.4
20260506171625 56 12 2.0 3.0 0.00 0.00 0.00 85 1022.2
20260506171122 56 55 1.0 2.0 0.00 0.00 0.00 86 1022.1
20260506170619 56 14 2.0 2.0 0.00 0.00 0.00 86 1022.2
20260506170116 56 44 2.0 3.0 0.00 0.00 0.00 86 1022.3
20260506165615 56 345 1.0 1.0 0.00 0.00 0.00 86 1022.2
20260506165110 56 24 2.0 2.0 0.00 0.00 0.00 86 1022.3
20260506164608 56 34 2.0 2.0 0.00 0.00 0.00 86 1022.3
20260506164105 56 39 2.0 2.0 0.00 0.00 0.00 86 1022.2
20260506163600 55 22 1.0 2.0 0.00 0.00 0.00 87 1022.0
20260506163057 55 48 2.0 3.0 0.00 0.00 0.00 87 1022.0
20260506162553 56 50 2.0 3.0 0.00 0.00 0.00 86 1022.3
20260506162051 56 5 1.0 2.0 0.00 0.00 0.00 85 1021.7
20260506161548 56 85 2.0 6.0 0.00 0.00 0.00 87 1021.6
20260506161045 55 58 2.0 4.0 0.00 0.00 0.00 88 1021.2
20260506160543 55 27 3.0 3.0 0.00 0.00 0.00 89 1021.6
20260506160039 54 350 1.0 2.0 0.00 0.00 0.00 90 1021.6
20260506155538 54 351 1.0 2.0 0.00 0.00 0.00 90 1022.1
20260506153715 54 355 1.0 1.0 0.00 0.00 0.00 90 1022.3
20260506153212 54 352 1.0 1.0 0.00 0.00 0.00 90 1022.4
20260506152709 54 10 1.0 1.0 0.00 0.00 0.00 90 1022.3
20260506152206 55 24 1.0 3.0 0.00 0.00 0.00 90 1022.2
20260506151706 55 341 1.0 2.0 0.00 0.00 0.00 90 1022.4
20260506151201 55 19 2.0 2.0 0.00 0.00 0.00 90 1022.2
20260506150658 55 9 0.0 2.0 0.00 0.00 0.00 90 1022.3
20260506150155 55 5 1.0 2.0 0.00 0.00 0.00 89 1022.1
20260506145652 56 47 1.0 1.0 0.00 0.00 0.00 89 1022.0
20260506145149 56 44 1.0 2.0 0.00 0.00 0.00 89 1021.8
20260506144647 55 43 0.0 1.0 0.00 0.00 0.00 90 1021.5
20260506144143 55 42 1.0 2.0 0.00 0.00 0.00 90 1021.1
20260506143641 55 39 1.0 1.0 0.00 0.00 0.00 90 1021.4
20260506143139 55 38 0.0 1.0 0.00 0.00 0.00 90 1021.1
20260506142637 55 36 0.0 0.0 0.00 0.00 0.00 91 1021.2
20260506142135 55 37 0.0 1.0 0.00 0.00 0.00 91 1021.1
20260506141632 55 37 1.0 2.0 0.00 0.00 0.00 91 1021.2
20260506141130 54 22 1.0 1.0 0.00 0.00 0.00 91 1021.1
20260506140627 54 21 1.0 1.0 0.00 0.00 0.00 91 1021.1